COSMOS 1275 DEB, 42184

Orbit data source: Space-Track

COSMOS 1275 DEB, 42184 is space debris in LEO originally from a launch on Thu, 04 Jun 1981 UTC launched from the Plesetsk Missile And Space Complex (PKMTR). Debris objects in space refer to the collection of defunct objects orbiting the Earth. Examples of debris include non-operational satellites, rocket bodies, and fragments generated from explosions, collisions, or faulty payload assembly.

Loading next visibility...
Identifier
42184, 1981-053SY
Orbit
LEO
Country
Flag of CISCIS
Related business
Manufacturer
Unknown
Mission
Spacecraft
Bus & Motor
Unknown
Mass
Unknown
Launch date (UTC)
1981-06-04 (45 years ago)
Launch vehicle
Unknown
Launch site
Plesetsk Missile And Space Complex (PKMTR)
Object type
Payload
Rocket body
Debris
Shape & HBR
Unknown shape, 0.1 m
Radar Cross Section
Small (<0.1 m²)

Expand to show TLE details & history
Last TLE update: 1 month ago

TLE from 1 month ago
0 COSMOS 1275 DEB
1 42184U 81053SY  26145.26861199  .00000212  00000-0  24571-3 0  9993
2 42184  83.0214 324.3430 0096257 162.9994  17.8897 13.62362684608439
Epoch: 2026-05-25T06:26Z
TLE epoch observation values (Epoch: 2026-05-25T06:26:48.075Z)
Latitude
-1.34525°
Longitude
164.94769°
Altitude
962.405 km
Speed
7.404 km/s
True Right ascension
09h 38m 01s
True Declination
-1° 20' 15"
Sunlit
Object was in daylight at epoch
Visualization orbit readout
Latitude
Unknown
Longitude
Unknown
Altitude
Unknown
Speed
Unknown
Apparent Right ascension
Unknown
Apparent Declination
Unknown
Sunlit
N/A
Visualization observer readout
Local Sidereal Time
21:55:08
Azimuth
Unknown
Elevation
Unknown
Doppler factor
Unknown
Orbital elements
Apogee altitude
1,095.534 km
Perigee altitude
953.027 km
Semi-major axis
7,402.418 km
Eccentricity
0.00963
Inclination
83.0214°
RAAN
324.343°
Arg. of periapsis
162.9994°
True anomaly
18.23245°
Mean anomaly
17.8897°
Eccentric anomaly
18.06068°
Mean motion
3.40787 °/min
Orbital period
105.64 mins
BSTAR
0.00024571
Loading maneuver chart data...
Computing Atmospheric mass density...

Documentation

Showing up to 5 results
|